This is the latest recevied weather packets stored in our database for station/object TA3HRJ-12. If no packets are shown the sender has not sent any weather packets the latest 1 day(s).
| Time | Temp. | Humidity | Pressure | Rain* | Wind** | Luminosity | Snow |
|---|---|---|---|---|---|---|---|
| 1777854306 | 12.78° C | 43% | 1016.3 hPa | - | - | - | - |
| 1777853406 | 13.33° C | 42% | 1016.3 hPa | - | - | - | - |
| 1777852506 | 13.33° C | 42% | 1016.4 hPa | - | - | - | - |
| 1777851606 | 13.33° C | 42% | 1016.3 hPa | - | - | - | - |
| 1777850706 | 13.33° C | 43% | 1016.4 hPa | - | - | - | - |
| 1777849806 | 13.33° C | 43% | 1016.2 hPa | - | - | - | - |
| 1777848906 | 12.78° C | 44% | 1016.1 hPa | - | - | - | - |
| 1777848005 | 12.78° C | 43% | 1015.8 hPa | - | - | - | - |
| 1777847105 | 12.22° C | 43% | 1016 hPa | - | - | - | - |
| 1777846205 | 12.22° C | 45% | 1015.9 hPa | - | - | - | - |
| 1777844405 | 13.33° C | 42% | 1016 hPa | - | - | - | - |
| 1777843505 | 13.33° C | 43% | 1015.9 hPa | - | - | - | - |
| 1777842605 | 12.78° C | 44% | 1015.8 hPa | - | - | - | - |
| 1777841705 | 12.22° C | 45% | 1015.8 hPa | - | - | - | - |
| 1777840805 | 12.22° C | 45% | 1015.8 hPa | - | - | - | - |
| 1777839905 | 11.67° C | 45% | 1015.8 hPa | - | - | - | - |
| 1777839004 | 11.67° C | 47% | 1015.8 hPa | - | - | - | - |
| 1777838103 | 11.67° C | 47% | 1015.8 hPa | - | - | - | - |
| 1777837203 | 11.67° C | 47% | 1015.8 hPa | - | - | - | - |
| 1777836303 | 11.11° C | 48% | 1015.8 hPa | - | - | - | - |
* Rain since midnight (hover to see other rain measurements)
** Current wind speed in m/s (hover to see current wind gust speed)